Location: Acton
(51.4942°N, 0.2232°W)
Time: 22:55:14
(UTC+00:00)

ATLAS 2AS CENTAUR R/B - Pass Details

Date: 18 September 2020
Orbit: 939 x 1273 km, 63.7° (Epoch: 27 October)

Event Time Altitude Azimuth Distance (km) Brightness Sun altitude
Exits shadow 22:59:06 27° 257° (WSW) 2,221 4.3 -35.8°
Maximum altitude 23:03:34 58° 325° (NW) 1,454 3.5 -36.0°
Drops below altitude 10° 23:11:13 10° 44° (NE) 3,185 5.5 -36.3°
Sets 23:14:01 0° 49° (NE) 4,114 6.1 -36.4°
